Location: Caltech
(34.1382°N, 118.1253°W)
Time: 15:48:45
(UTC-07:00)

HO-68 - Visible Passes

Search period start: 20 October 2014 00:00
Search period end: 30 October 2014 00:00
Orbit: 1193 x 1204 km, 100.2° (Epoch: 20 October)

Date Brightness Start Highest point End Pass type
(mag) Time Alt. Az. Time Alt. Az. Time Alt. Az.
20 Oct ? 20:19:02 29° NNE 20:19:02 29° NNE 20:23:10 10° N visible
20 Oct ? 22:08:30 22° NW 22:08:30 22° NW 22:11:00 10° NNW visible
21 Oct ? 20:02:01 24° NE 20:02:01 24° NE 20:05:51 10° N visible
21 Oct ? 21:51:29 26° NW 21:51:29 26° NW 21:54:23 10° NNW visible
22 Oct ? 19:45:00 19° NE 19:45:00 19° NE 19:48:20 10° NNE visible
22 Oct ? 21:34:28 29° NNW 21:34:28 29° NNW 21:37:39 10° NNW visible
23 Oct ? 19:27:59 14° NE 19:27:59 14° NE 19:30:30 10° NNE visible
23 Oct ? 21:17:27 31° NNW 21:17:27 31° NNW 21:20:48 10° NNW visible
24 Oct ? 19:10:58 10° NE 19:10:58 10° NE 19:11:23 10° NE visible
24 Oct ? 21:00:26 31° N 21:00:26 31° N 21:03:51 10° N visible
25 Oct ? 20:43:24 29° N 20:43:24 29° N 20:46:48 10° N visible
25 Oct ? 22:32:52 12° NW 22:32:52 12° NW 22:33:34 10° NW visible
26 Oct ? 20:26:23 26° NNE 20:26:23 26° NNE 20:29:40 10° N visible
26 Oct ? 22:15:50 16° NW 22:15:50 16° NW 22:17:13 10° NW visible
27 Oct ? 20:09:21 22° NNE 20:09:21 22° NNE 20:12:24 10° N visible
27 Oct ? 21:58:49 19° NW 21:58:49 19° NW 22:00:40 10° NNW visible
28 Oct ? 19:52:20 18° NNE 19:52:20 18° NNE 19:54:59 10° NNE visible
28 Oct ? 21:41:47 21° NNW 21:41:47 21° NNW 21:43:58 10° NNW visible
29 Oct ? 19:35:18 15° NE 19:35:18 15° NE 19:37:19 10° NNE visible
29 Oct ? 21:24:46 23° NNW 21:24:46 23° NNW 21:27:09 10° NNW visible
